[[{"header":{"parameterUnit":"m.s-1","parameterCategory":1,"la1":30.2991,"la2":30.254,"lo1":-89.0895,"lo2":-89.0444,"dy":0.0017,"dx":0.0017,"nx":28,"ny":28,"refTime":"2024-09-26T03:00:00:Z","depth":0,"parameterNumber":2,"parameterNumberName":"U-component_of_WINDS"},"data":[0,0,0,0,0,0,0,0,0,0,0,0,0,0,0,0,0,0,0,0,0,0,0,0,0,0,0,0,0,0,0,0,0,0,0,0,0,0,0,0,0,0,0,0,0,0,0,0,0,0,0,0,0,0,0,0,0,0,3.9351,3.9352,0,3.9422,3.9423,3.9424,3.9383,3.9381,3.9379,3.9377,3.9449,3.9453,3.9457,0,0,0,0,0,0,0,0,0,0,0,0,0,3.9181,3.9184,3.9351,3.9352,3.9353,3.9422,3.9423,3.9424,3.9383,3.9381,3.9378,3.9376,3.9448,3.9453,3.9457,0,0,0,0,0,0,0,0,0,0,0,0,0,3.9254,3.9185,3.9351,3.9341,3.9341,3.9422,3.9423,3.9425,3.9384,3.9381,3.9378,3.9375,3.9447,3.9452,3.9458,3.9553,0,0,3.9475,3.9478,0,0,0,0,0,0,0,0,3.925,3.926,3.9342,3.9342,3.9342,3.9391,3.939,3.9468,3.9385,3.9368,3.9377,3.9374,3.9432,3.9439,3.9459,3.9556,3.9559,3.9476,3.9479,3.9482,3.9483,0,0,0,0,0,0,0,3.9245,3.9257,3.9379,3.9343,3.9343,3.9333,3.934,3.9404,3.9416,3.9369,3.9366,3.9375,3.9432,3.9454,3.946,3.956,3.9476,3.9481,3.9484,3.9486,3.9741,3.9744,0,0,0,0,0,0,3.924,3.9253,3.9377,3.9382,3.9287,3.9339,3.9347,3.9378,3.9415,3.9418,3.9377,3.9373,3.9445,3.9454,3.9463,3.9577,3.9482,3.9487,3.949,3.9738,3.9742,3.9745,0,0,0,0,0,0,3.9237,3.9252,3.9374,3.9316,3.9331,3.9345,3.9381,3.9381,3.9403,3.9422,3.9423,3.9398,3.9443,3.9455,3.9531,3.9579,3.9489,3.9495,3.9734,3.9739,3.9744,3.9807,0,0,0,0,0,0,3.9232,3.9251,3.9287,3.9318,3.9335,3.9442,3.9384,3.9385,3.9413,3.9407,3.9441,3.9444,3.9442,3.9523,3.9537,3.9585,3.9499,3.9729,3.9736,3.9742,3.98,3.9813,3.9824,0,0,0,0,0,3.9226,3.9301,3.9289,3.9304,3.938,3.9444,3.9454,3.9451,3.9417,3.9453,3.9466,3.9443,3.9572,3.9531,3.9546,3.9597,3.9726,3.9734,3.9742,3.9795,3.9811,3.9824,0,0,0,0,0,0,3.9275,3.9305,3.9291,3.9379,3.941,3.9437,3.9483,3.9467,3.9508,3.9501,3.9495,3.9503,3.9583,3.9598,3.9552,3.9692,3.9644,3.9655,3.9679,3.9694,3.9706,3.97,3.9504,0,0,0,0,0,3.9296,3.9346,3.9369,3.9444,3.946,3.9469,3.9497,3.9492,3.9524,3.9536,3.9554,3.9585,3.9633,3.9665,3.9709,3.9803,3.981,3.9845,3.9857,3.9867,3.9876,3.9928,3.9944,3.977,3.977,3.977,0,0,3.934,3.9362,3.9394,3.9455,3.9478,3.953,3.948,3.9537,3.9576,3.9545,3.9618,3.9633,3.9667,3.9753,3.9791,3.9768,3.9926,3.9877,3.9884,3.9888,3.9937,3.9953,3.9968,3.9775,3.9774,3.9774,0,0,3.9446,3.9468,3.9533,3.9558,3.9594,3.9599,3.9615,3.9646,3.9655,3.9729,3.9707,3.9753,3.9835,3.9861,3.9885,4.0003,3.9984,4.0018,4.008,4.013,4.0144,4.0156,4.0199,4.0214,4.0027,4.0028,4.0028,0,3.9495,3.9573,3.9569,3.9628,3.9655,3.963,3.9697,3.9721,3.977,3.9789,3.9762,3.9866,3.9888,3.9979,4.0008,4.0029,4.0047,4.0014,4.0142,4.0154,4.0166,4.0206,4.0222,4.0032,4.0031,4.0031,4.003,0,3.9633,3.9687,3.9735,3.9784,3.9817,3.9879,3.9885,3.9919,3.9912,3.9921,3.9997,4.0022,4.0072,4.0094,4.0087,4.0185,4.0169,4.0143,4.0094,4.0186,4.0224,4.024,4.0037,4.0036,4.0035,4.0034,0,0,3.977,3.9817,3.9834,3.9857,3.9895,3.9937,3.9999,4.0049,4.0078,4.0114,4.0165,4.0237,4.0213,4.024,4.0236,4.028,4.0373,4.0248,4.0249,4.027,4.0484,4.0503,4.0521,4.0361,4.0364,4.0366,4.0481,0,3.9879,3.9987,3.9986,4.0086,4.0136,4.0114,4.0168,4.0198,4.0209,4.0253,4.0265,4.0315,4.028,4.0296,4.0339,4.0353,4.0416,4.0344,4.0409,4.0411,4.0401,4.0541,4.0562,4.0669,4.0496,4.0498,4.05,0,4.002,4.006,4.0166,4.0198,4.0219,4.0268,4.0314,4.0357,4.0391,4.0395,4.0427,4.0416,4.048,4.043,4.0518,4.047,4.0496,4.0507,4.0511,4.0517,4.0461,4.055,4.0703,4.0719,4.0523,4.0521,4.052,0,4.011,4.0191,4.0264,4.0284,4.0324,4.0359,4.0377,4.0408,4.0438,4.0479,4.0498,4.0546,4.0572,4.0609,4.0612,4.0575,4.07,4.0651,4.0706,4.0706,4.0733,4.0731,4.0892,4.0751,4.075,4.075,4.075,0,4.0231,4.0297,4.0306,4.0351,4.0424,4.0422,4.0495,4.051,4.0538,4.0586,4.057,4.0616,4.0617,4.0664,4.0667,4.074,4.0751,4.0757,4.0757,4.0758,4.0758,4.0775,4.0768,4.0754,4.0753,4.0753,4.0752,0,4.0344,4.0352,4.0431,4.0463,4.0473,4.0525,4.0552,4.0596,4.0606,4.0667,4.0681,4.0696,4.0751,4.0758,4.0821,4.0823,4.0911,4.0903,4.09,4.0898,4.0953,4.0948,4.113,4.1155,4.0998,4.1,4.1001,0,4.042,4.047,4.0508,4.0539,4.0559,4.061,4.0641,4.0642,4.0675,4.0719,4.0758,4.0811,4.0853,4.0942,4.0958,4.1007,4.1,4.1061,4.1007,4.1008,4.1001,4.0998,4.1003,4.1071,4.1073,4.1074,4.1075,0,4.0556,4.0558,4.0603,4.0651,4.0689,4.0727,4.0762,4.0789,4.0794,4.0832,4.0888,4.0921,4.0987,4.104,4.1089,4.1108,4.1093,4.1092,4.1108,4.1109,4.1105,4.1108,4.0928,4.1088,4.1087,4.1086,4.1085,4.1084,4.0652,4.0696,4.073,4.0781,4.0808,4.0842,4.0885,4.0901,4.0947,4.1001,4.0999,4.1061,4.1095,4.1159,4.1181,4.123,4.121,4.1232,4.1238,4.1243,4.1249,4.1098,4.1239,4.1239,4.1238,4.1238,4.1238,0,4.0787,4.0808,4.0856,4.0906,4.0947,4.093,4.0969,4.1004,4.1059,4.1092,4.1135,4.1199,4.1251,4.1273,4.1324,4.1359,4.1354,4.1373,4.137,4.1375,4.1264,4.1245,4.1376,4.1376,4.1376,4.1376,4.1376,4.1376,4.0862,4.0935,4.0942,4.1029,4.1049,4.111,4.1133,4.1165,4.1191,4.1265,4.1308,4.1322,4.1351,4.1404,4.1451,4.1457,4.1476,4.1498,4.15,4.1396,4.1382,4.1369,4.1351,4.1502,4.1503,4.1607,4.1608,4.1609]},{"header":{"parameterUnit":"m.s-1","parameterCategory":1,"la1":30.2991,"la2":30.254,"lo1":-89.0895,"lo2":-89.0444,"dy":0.0017,"dx":0.0017,"nx":28,"ny":28,"refTime":"2024-09-26T03:00:00:Z","depth":0,"parameterNumber":3,"parameterNumberName":"V-component_of_WINDS"},"data":[0,0,0,0,0,0,0,0,0,0,0,0,0,0,0,0,0,0,0,0,0,0,0,0,0,0,0,0,0,0,0,0,0,0,0,0,0,0,0,0,0,0,0,0,0,0,0,0,0,0,0,0,0,0,0,0,0,0,-7.3419,-7.3422,0,-7.3654,-7.3656,-7.3659,-7.3623,-7.3619,-7.3615,-7.3611,-7.3849,-7.3859,-7.3869,0,0,0,0,0,0,0,0,0,0,0,0,0,-7.294,-7.2949,-7.3419,-7.3422,-7.3425,-7.3653,-7.3657,-7.366,-7.3624,-7.3619,-7.3614,-7.361,-7.3846,-7.3857,-7.387,0,0,0,0,0,0,0,0,0,0,0,0,0,-7.3158,-7.2952,-7.3419,-7.3435,-7.3439,-7.3653,-7.3657,-7.3661,-7.3625,-7.3619,-7.3613,-7.3607,-7.3842,-7.3856,-7.3871,-7.4083,0,0,-7.3917,-7.3924,0,0,0,0,0,0,0,0,-7.3146,-7.3176,-7.343,-7.3434,-7.3439,-7.3603,-7.3574,-7.3802,-7.3626,-7.3554,-7.3611,-7.3604,-7.3772,-7.3792,-7.3849,-7.4094,-7.4105,-7.3918,-7.3928,-7.3934,-7.3938,0,0,0,0,0,0,0,-7.3131,-7.3166,-7.3512,-7.3433,-7.3439,-7.343,-7.3454,-7.3617,-7.3693,-7.356,-7.3558,-7.3586,-7.3773,-7.3835,-7.3854,-7.4108,-7.3918,-7.3931,-7.3941,-7.3947,-7.4542,-7.4548,0,0,0,0,0,0,-7.3111,-7.3153,-7.3504,-7.3519,-7.3275,-7.3443,-7.3471,-7.3556,-7.3692,-7.3707,-7.3591,-7.3584,-7.3812,-7.3837,-7.3863,-7.4122,-7.3934,-7.3948,-7.3957,-7.4535,-7.4543,-7.4551,0,0,0,0,0,0,-7.3101,-7.3143,-7.3495,-7.3336,-7.338,-7.3458,-7.3554,-7.3564,-7.3626,-7.3715,-7.3728,-7.364,-7.3808,-7.3842,-7.403,-7.413,-7.3955,-7.3968,-7.4527,-7.4538,-7.4547,-7.4642,0,0,0,0,0,0,-7.3088,-7.314,-7.3221,-7.3338,-7.3389,-7.3659,-7.3561,-7.3573,-7.3652,-7.3645,-7.3765,-7.3779,-7.3806,-7.4007,-7.4045,-7.4147,-7.398,-7.4518,-7.4532,-7.4544,-7.463,-7.4654,-7.4674,0,0,0,0,0,-7.3071,-7.3237,-7.3226,-7.3268,-7.3492,-7.3664,-7.3693,-7.3722,-7.366,-7.3743,-7.3801,-7.3775,-7.4113,-7.4027,-7.4068,-7.4177,-7.4512,-7.4528,-7.4543,-7.462,-7.4649,-7.4674,0,0,0,0,0,0,-7.3129,-7.3253,-7.3241,-7.3451,-7.3548,-7.3658,-7.3763,-7.3751,-7.3867,-7.3855,-7.3885,-7.3912,-7.4104,-7.4159,-7.4061,-7.4391,-7.4304,-7.4328,-7.4348,-7.4377,-7.4398,-7.4382,-7.3993,0,0,0,0,0,-7.3167,-7.3297,-7.3397,-7.3572,-7.3622,-7.3685,-7.376,-7.3774,-7.3875,-7.3916,-7.3987,-7.4086,-7.4214,-7.4298,-7.4421,-7.4637,-7.4664,-7.4733,-7.4755,-7.4772,-7.4794,-7.4914,-7.4947,-7.4601,-7.4601,-7.46,0,0,-7.3245,-7.3329,-7.3409,-7.3587,-7.3663,-7.3797,-7.3719,-7.3863,-7.3964,-7.3937,-7.4121,-7.4176,-7.4288,-7.4492,-7.4585,-7.4544,-7.4895,-7.4792,-7.4805,-7.4817,-7.4933,-7.4966,-7.4995,-7.4611,-7.4609,-7.4608,0,0,-7.3457,-7.3533,-7.3688,-7.3767,-7.3885,-7.3926,-7.3963,-7.4076,-7.4113,-7.4297,-7.4281,-7.44,-7.462,-7.4701,-7.4771,-7.5017,-7.4998,-7.5055,-7.5172,-7.5289,-7.5316,-7.5341,-7.543,-7.5462,-7.5076,-7.5076,-7.5076,0,-7.3539,-7.3742,-7.3769,-7.3917,-7.3996,-7.398,-7.4139,-7.4213,-7.4365,-7.442,-7.4372,-7.4649,-7.4723,-7.4947,-7.5007,-7.5064,-7.5108,-7.5042,-7.531,-7.5335,-7.5358,-7.5444,-7.5477,-7.5082,-7.5082,-7.5081,-7.508,0,-7.3838,-7.3979,-7.409,-7.4239,-7.433,-7.4482,-7.4533,-7.4623,-7.4629,-7.4675,-7.4864,-7.4952,-7.5094,-7.5148,-7.5154,-7.5374,-7.5345,-7.5303,-7.5216,-7.5397,-7.5478,-7.5511,-7.5092,-7.5089,-7.5087,-7.5086,0,0,-7.4093,-7.4257,-7.4298,-7.4366,-7.4495,-7.4605,-7.4756,-7.4896,-7.4973,-7.5078,-7.5207,-7.5395,-7.5358,-7.5438,-7.5453,-7.5556,-7.5748,-7.5502,-7.5505,-7.5547,-7.5997,-7.6029,-7.6066,-7.5735,-7.5742,-7.5747,-7.5988,0,-7.4319,-7.4589,-7.4619,-7.4859,-7.499,-7.4978,-7.511,-7.5204,-7.5251,-7.5369,-7.542,-7.5554,-7.5494,-7.5543,-7.5644,-7.5703,-7.5839,-7.5685,-7.5856,-7.5862,-7.5831,-7.6108,-7.6142,-7.6366,-7.602,-7.6025,-7.6029,0,-7.4619,-7.4735,-7.4989,-7.5102,-7.5159,-7.5277,-7.5409,-7.5522,-7.5628,-7.5655,-7.5746,-7.5749,-7.5906,-7.5812,-7.6029,-7.5925,-7.5996,-7.6036,-7.6045,-7.6064,-7.5958,-7.6136,-7.6438,-7.6472,-7.6079,-7.6075,-7.6071,0,-7.4783,-7.5002,-7.5183,-7.5241,-7.5378,-7.5462,-7.5522,-7.5623,-7.5706,-7.5821,-7.5875,-7.6006,-7.6079,-7.618,-7.6219,-7.6146,-7.6435,-7.6344,-7.6463,-7.6463,-7.6526,-7.6521,-7.6845,-7.6569,-7.6568,-7.6567,-7.6567,0,-7.5033,-7.5189,-7.5259,-7.537,-7.5545,-7.5578,-7.5751,-7.5807,-7.5897,-7.602,-7.6016,-7.6131,-7.6174,-7.6296,-7.6327,-7.6503,-7.6535,-7.6562,-7.6569,-7.6564,-7.6561,-7.6613,-7.6599,-7.6576,-7.6574,-7.6573,-7.6571,0,-7.5246,-7.5298,-7.5495,-7.5609,-7.5641,-7.5765,-7.5863,-7.5971,-7.6016,-7.6172,-7.621,-7.6282,-7.6426,-7.6475,-7.6648,-7.6669,-7.6875,-7.6867,-7.684,-7.6842,-7.6959,-7.6948,-7.7329,-7.7381,-7.7068,-7.7071,-7.7074,0,-7.5403,-7.5523,-7.5651,-7.5733,-7.5798,-7.593,-7.6015,-7.6052,-7.6141,-7.6273,-7.6366,-7.6509,-7.6625,-7.6856,-7.6923,-7.7057,-7.7053,-7.7177,-7.7073,-7.7065,-7.7058,-7.7051,-7.7064,-7.7197,-7.72,-7.7203,-7.7205,0,-7.5677,-7.5698,-7.5821,-7.5956,-7.6058,-7.6165,-7.6268,-7.6335,-7.6388,-7.6488,-7.6636,-7.6727,-7.6905,-7.7048,-7.7184,-7.7246,-7.7236,-7.7237,-7.7273,-7.727,-7.725,-7.7265,-7.6896,-7.7229,-7.7226,-7.7225,-7.7223,-7.7223,-7.5869,-7.5976,-7.6083,-7.6222,-7.6304,-7.6401,-7.6509,-7.6569,-7.6694,-7.6843,-7.6857,-7.7017,-7.7122,-7.7304,-7.7373,-7.7499,-7.7464,-7.7514,-7.7527,-7.754,-7.755,-7.7229,-7.7523,-7.7523,-7.7522,-7.7522,-7.7521,0,-7.6145,-7.6214,-7.6341,-7.6486,-7.6596,-7.6577,-7.6691,-7.6783,-7.6925,-7.7024,-7.7139,-7.731,-7.7449,-7.7528,-7.7667,-7.7753,-7.7752,-7.7788,-7.7783,-7.7798,-7.7572,-7.7529,-7.7787,-7.7787,-7.7787,-7.7787,-7.7787,-7.7787,-7.6302,-7.6483,-7.6517,-7.6739,-7.6807,-7.6965,-7.7032,-7.7122,-7.7201,-7.7393,-7.7509,-7.756,-7.7652,-7.7798,-7.7925,-7.7944,-7.7997,-7.8037,-7.8054,-7.7841,-7.7814,-7.7788,-7.7748,-7.8048,-7.8048,-7.827,-7.8272,-7.8274]}]]